Wind_Speed
9 9 8 8 7 7 7 8 8 8 9 9 10 9 10 10 10 10 10 10 10 9 9 9 8 8 8 8 8 6 6 6 5 4 4 4 4 3 3 3 2 2 2
9 9 8 9 9 8 8 8 8 9 9 9 9 10 10 11 11 11 11 10 10 10 9 8 8 7 7 7 7 6 5 5 4 3 3 3 4 3 3 2 2 2 2
9 9 9 9 10 9 8 9 9 10 10 10 10 10 10 11 12 11 11 10 10 10 9 8 8 8 7 7 6 5 5 5 4 3 3 3 3 3 2 2 2 2 2
10 9 9 10 9 9 9 9 9 9 9 10 10 10 11 11 11 11 10 9 9 9 9 8 8 7 8 7 6 5 5 4 4 4 3 2 2 2 2 2 1 1 1
11 10 10 10 10 9 8 8 9 9 10 10 10 9 10 10 10 10 9 9 9 9 8 7 7 7 7 6 6 5 5 5 4 3 3 3 2 2 2 2 1 1 1
12 12 12 11 12 10 9 9 9 10 11 10 9 8 9 10 10 9 9 8 8 8 8 8 8 6 5 5 5 5 5 4 4 3 3 3 2 2 2 2 1 1 1
15 14 13 13 12 11 11 11 11 11 11 11 10 9 9 10 10 9 9 8 7 7 8 8 8 7 5 5 5 5 4 3 3 4 3 3 2 2 2 2 2 1 1
16 15 14 14 13 12 12 12 11 11 10 10 9 9 10 10 9 9 8 8 7 7 7 7 7 6 6 5 5 5 4 3 3 4 4 3 3 3 3 3 2 2 1
16 16 15 14 13 13 12 12 10 10 9 9 8 8 8 8 7 7 7 7 7 7 7 7 7 6 6 6 6 5 3 3 3 3 3 3 3 3 3 3 3 3 2
17 16 15 14 13 12 12 12 11 10 9 9 8 8 8 7 7 6 6 7 7 7 6 6 6 6 5 5 5 4 4 4 3 3 2 2 3 2 3 3 3 4 3
17 16 15 14 13 13 12 12 11 10 9 9 9 9 8 8 7 6 5 5 5 5 5 5 6 6 5 5 4 4 4 4 3 3 3 3 3 3 3 3 4 4 4
17 16 16 15 14 13 12 11 10 9 8 8 9 8 8 7 7 6 6 5 5 5 5 5 5 4 4 4 4 4 4 4 3 3 3 4 3 3 3 4 4 4 4
16 15 15 15 13 12 11 11 10 9 9 8 8 7 7 6 6 5 5 5 5 5 5 5 4 4 4 4 4 4 4 4 4 4 3 3 3 3 3 4 4 4 4
16 15 14 14 13 12 12 10 10 9 8 8 8 7 6 5 5 4 4 4 4 4 4 4 4 4 4 3 4 4 4 4 4 4 4 4 4 4 4 4 5 5 5
17 16 15 14 12 12 11 11 10 9 8 7 7 6 6 5 4 4 4 3 3 3 2 3 4 3 3 3 3 3 4 5 5 5 5 5 4 4 4 5 6 6 6
18 17 16 14 12 11 11 11 10 9 7 6 5 5 4 3 3 2 1 2 2 2 2 2 2 2 2 2 3 4 4 5 5 5 5 5 5 5 5 6 7 7 7
18 17 16 14 13 12 11 10 10 9 7 7 5 4 4 3 2 1 1 1 1 2 2 2 2 1 2 3 3 4 4 5 5 5 5 5 6 6 5 5 6 6 7
17 17 17 16 14 13 11 11 11 10 8 6 6 4 3 2 2 2 1 1 0 1 1 2 2 2 2 3 4 4 5 6 6 6 6 6 6 6 6 6 6 7 7
16 16 16 16 15 14 13 11 11 10 9 8 7 6 4 3 2 1 1 1 1 1 1 1 2 3 3 4 4 4 4 5 6 6 6 6 7 7 7 7 7 7 8
17 16 16 15 15 14 14 13 11 11 10 9 8 7 5 4 3 2 1 1 1 2 2 2 2 2 3 4 4 4 4 5 6 6 7 7 7 7 7 8 8 8 9
16 16 15 15 14 14 14 13 13 12 10 10 9 8 6 6 5 4 2 2 2 2 2 2 2 2 3 4 4 4 4 5 5 6 7 8 9 9 9 9 10 9 9
16 15 15 14 14 14 14 14 13 12 11 11 10 8 7 6 6 5 4 3 3 2 2 2 3 2 3 3 4 4 4 5 6 7 7 8 9 10 10 10 10 11 11
15 15 14 14 14 14 13 13 13 12 12 11 10 9 8 7 6 6 5 5 4 3 3 3 2 2 2 2 3 4 5 6 6 7 8 9 9 9 10 10 10 10 11
13 14 14 13 13 14 13 12 12 12 11 10 9 8 8 8 7 6 5 5 5 4 4 4 3 3 3 3 3 4 4 5 6 6 7 8 9 9 10 11 11 12 12
11 12 13 13 13 13 13 12 12 11 11 11 8 8 8 7 7 6 6 5 5 5 4 4 4 4 4 4 5 5 5 6 6 7 7 8 9 10 10 10 11 13 13
10 11 11 11 11 12 12 12 12 12 12 11 9 8 7 6 6 6 5 5 5 5 4 4 4 5 5 5 6 6 7 7 7 7 8 8 9 10 11 11 12 13 14
Wind_Direction
73 77 76 84 95 106 111 117 123 123 126 136 139 142 143 144 145 149 150 152 153 151 152 152 151 149 146 145 148 146 144 141 142 138 143 151 155 150 149 134 123 115 116
70 74 74 76 90 99 103 114 121 128 129 134 138 142 145 146 146 146 148 150 154 154 153 152 152 148 147 147 150 147 145 145 143 142 144 152 162 162 154 137 119 118 122
68 73 76 76 86 95 100 113 118 125 132 137 141 144 147 147 151 148 147 151 156 156 154 152 151 152 151 148 150 147 146 143 148 147 149 158 172 176 165 145 120 112 133
66 70 73 74 83 89 100 115 121 126 131 139 143 147 149 151 153 154 154 154 154 156 156 157 161 160 159 156 153 153 155 152 148 150 155 157 166 166 157 147 125 90 127
65 68 71 74 74 84 98 112 123 128 133 137 140 142 147 151 151 151 154 156 155 157 158 159 166 164 161 161 162 164 162 158 156 162 159 156 168 177 167 146 125 122 152
65 69 73 73 74 81 93 107 121 126 127 130 133 139 143 146 147 150 152 154 157 162 163 165 168 170 169 165 163 162 162 169 173 174 172 175 184 192 192 183 177 200 215
67 70 73 74 76 79 89 102 116 123 123 124 127 135 142 148 152 151 149 151 157 160 166 169 170 170 165 165 167 169 168 165 175 178 183 190 211 231 214 200 211 220 221
66 68 72 74 79 85 89 96 109 114 113 119 127 133 142 149 144 143 150 154 156 152 160 169 171 172 172 175 174 173 173 175 186 183 195 209 228 228 218 206 205 214 213
67 67 67 70 76 85 90 94 102 107 106 112 119 126 139 148 150 146 149 159 160 160 164 168 170 174 178 179 182 184 183 188 190 201 215 223 226 225 214 209 220 219 215
65 66 64 65 69 78 86 90 93 100 102 104 110 121 131 133 133 138 138 148 158 164 167 170 177 179 179 186 192 196 203 205 217 223 222 224 222 222 215 212 214 211 212
62 64 66 66 68 75 83 89 91 96 102 103 111 119 123 125 130 133 134 145 159 165 166 173 179 181 186 196 199 203 212 214 225 229 217 229 232 233 229 220 210 207 212
61 62 65 66 70 74 82 88 88 92 98 108 113 113 115 117 124 134 144 154 166 164 166 174 180 190 192 199 204 212 216 215 226 233 226 233 233 228 231 228 220 219 222
61 62 64 65 67 72 77 82 83 87 94 98 99 101 108 115 121 128 146 154 159 165 170 175 189 200 206 210 222 229 228 226 228 232 233 237 233 230 233 233 228 228 232
60 60 61 64 68 72 74 74 75 78 84 87 87 94 103 113 126 129 138 145 157 172 179 184 188 197 203 212 228 235 238 234 236 236 240 245 244 239 237 237 238 238 238
52 54 57 60 64 67 72 78 79 79 81 81 80 85 92 101 117 138 139 137 152 162 180 185 174 183 204 228 235 253 251 245 239 238 240 247 251 248 245 242 240 242 243
49 50 52 55 59 64 69 74 78 80 78 72 72 75 84 95 113 131 137 99 123 149 178 196 200 217 228 252 267 266 261 250 245 249 250 250 252 249 244 246 244 244 245
47 47 48 51 53 58 65 70 68 68 67 64 69 70 71 73 79 106 119 126 152 176 208 219 226 222 245 255 265 273 270 257 252 253 255 251 250 249 245 247 243 245 246
45 45 46 50 52 54 56 61 59 57 57 52 53 52 49 54 83 101 82 60 120 218 214 227 245 239 254 259 267 273 275 260 256 254 255 249 246 248 249 251 248 248 248
43 43 45 48 49 51 51 55 54 51 49 45 45 42 39 38 42 51 62 76 342 299 278 277 275 259 260 262 269 273 275 261 254 255 254 250 249 253 254 253 254 253 251
43 43 44 44 46 46 47 47 46 45 45 42 40 37 35 35 30 23 356 316 301 314 307 296 285 278 273 265 266 270 274 258 253 254 252 251 256 261 263 260 258 255 255
42 42 43 43 43 43 42 42 42 41 40 39 34 32 33 34 28 14 1 341 328 338 326 316 302 292 291 279 271 275 274 260 257 253 258 260 263 266 267 265 261 256 259
40 40 41 42 40 37 37 36 37 35 33 31 32 36 35 37 33 35 20 9 3 360 340 316 309 295 303 287 279 279 277 271 266 260 269 272 270 271 271 270 264 260 262
36 37 37 36 36 34 32 32 31 32 29 28 30 31 27 19 19 21 24 24 22 17 11 353 342 317 314 303 292 285 279 274 272 267 270 274 274 275 274 270 272 270 268
30 30 30 29 30 30 29 26 26 25 23 25 29 26 20 18 19 14 18 14 10 6 1 358 356 338 329 321 315 303 291 284 281 281 279 277 276 277 276 275 273 270 271
20 22 23 24 24 23 24 22 20 19 19 19 22 22 19 24 22 18 18 14 9 4 353 345 343 335 324 316 313 311 306 293 288 288 288 286 281 280 279 279 277 273 269
12 13 15 17 17 16 16 16 14 13 14 17 19 16 18 24 24 23 18 18 12 1 352 342 334 325 317 317 316 310 304 296 291 289 287 289 289 286 282 281 281 276 271
Height
5856 5856 5855 5855 5855 5855 5855 5856 5857 5858 5859 5859 5861 5862 5864 5866 5868 5870 5872 5873 5875 5877 5878 5879 5880 5881 5882 5884 5885 5886 5887 5888 5888 5889 5890 5891 5891 5892 5893 5893 5893 5893 5893
5858 5857 5857 5856 5856 5855 5856 5857 5857 5858 5859 5860 5862 5863 5865 5867 5869 5871 5872 5874 5876 5877 5879 5880 5881 5882 5883 5884 5886 5887 5888 5888 5889 5890 5891 5891 5892 5893 5893 5893 5893 5894 5894
5859 5859 5858 5857 5856 5856 5857 5857 5858 5859 5860 5861 5863 5864 5866 5868 5870 5872 5873 5875 5876 5878 5880 5881 5882 5883 5884 5885 5886 5887 5888 5889 5890 5890 5891 5892 5893 5893 5893 5893 5894 5894 5894
5861 5860 5859 5859 5858 5858 5858 5858 5859 5859 5860 5862 5864 5865 5867 5869 5870 5872 5874 5876 5877 5879 5880 5881 5882 5884 5885 5886 5887 5888 5889 5889 5890 5891 5892 5892 5893 5893 5893 5893 5894 5894 5895
5862 5861 5861 5860 5860 5859 5859 5859 5859 5860 5862 5863 5865 5867 5868 5870 5871 5873 5875 5876 5878 5879 5881 5882 5883 5884 5885 5886 5887 5888 5889 5890 5891 5891 5892 5892 5893 5893 5894 5894 5894 5895 5895
5864 5863 5862 5862 5861 5860 5859 5859 5860 5862 5863 5865 5866 5868 5869 5871 5872 5874 5876 5877 5879 5880 5881 5882 5883 5884 5885 5886 5887 5888 5889 5890 5891 5891 5892 5893 5893 5894 5894 5894 5895 5895 5895
5867 5865 5864 5863 5862 5861 5860 5860 5861 5863 5865 5866 5867 5869 5870 5872 5873 5874 5876 5878 5879 5880 5881 5882 5883 5884 5885 5886 5887 5888 5889 5890 5891 5891 5892 5893 5893 5894 5894 5894 5895 5895 5895
5869 5868 5866 5865 5864 5863 5863 5863 5864 5866 5867 5868 5869 5870 5871 5873 5874 5876 5877 5878 5879 5880 5881 5882 5883 5884 5885 5886 5887 5888 5889 5890 5890 5891 5892 5893 5893 5893 5894 5894 5894 5895 5895
5871 5870 5869 5868 5866 5866 5866 5866 5867 5868 5869 5870 5871 5872 5872 5874 5875 5877 5877 5879 5880 5880 5882 5883 5884 5885 5885 5886 5887 5888 5889 5890 5890 5891 5892 5892 5893 5893 5893 5894 5894 5895 5895
5874 5873 5872 5871 5870 5869 5869 5869 5869 5870 5871 5871 5872 5873 5874 5875 5876 5877 5878 5879 5880 5881 5882 5883 5884 5885 5886 5886 5887 5888 5889 5890 5890 5891 5892 5892 5893 5893 5893 5893 5894 5894 5895
5877 5875 5874 5873 5873 5872 5871 5871 5872 5872 5873 5873 5874 5874 5875 5876 5877 5878 5879 5880 5881 5881 5882 5883 5884 5885 5886 5886 5887 5888 5889 5889 5890 5891 5891 5892 5892 5893 5893 5893 5894 5894 5895
5879 5878 5877 5876 5875 5875 5874 5874 5874 5874 5875 5875 5875 5876 5877 5877 5878 5879 5880 5880 5881 5882 5883 5883 5884 5885 5885 5886 5887 5888 5888 5889 5890 5890 5891 5891 5892 5892 5892 5893 5894 5894 5895
5882 5881 5880 5879 5878 5877 5877 5876 5876 5876 5876 5877 5877 5877 5878 5879 5879 5880 5880 5880 5881 5882 5883 5883 5884 5885 5885 5886 5887 5887 5888 5888 5889 5890 5890 5891 5891 5892 5892 5892 5893 5894 5894
5885 5883 5882 5881 5880 5880 5879 5879 5879 5878 5878 5878 5879 5879 5879 5880 5880 5880 5881 5881 5882 5883 5883 5884 5884 5884 5885 5886 5886 5887 5887 5888 5888 5889 5889 5890 5890 5891 5891 5892 5892 5893 5894
5887 5886 5885 5883 5883 5882 5881 5881 5881 5881 5880 5880 5880 5880 5880 5881 5881 5881 5881 5882 5882 5883 5883 5884 5884 5884 5885 5885 5886 5886 5887 5887 5887 5888 5888 5889 5890 5890 5891 5891 5891 5892 5892
5890 5889 5887 5886 5885 5884 5884 5883 5883 5882 5882 5882 5882 5881 5881 5881 5882 5881 5881 5882 5882 5883 5883 5883 5884 5884 5884 5884 5885 5885 5885 5886 5887 5887 5887 5888 5889 5889 5890 5890 5890 5890 5891
5893 5891 5890 5888 5887 5886 5886 5885 5884 5884 5883 5883 5883 5883 5882 5882 5882 5882 5882 5882 5883 5883 5883 5883 5883 5883 5884 5884 5884 5884 5884 5885 5885 5886 5886 5887 5887 5888 5888 5888 5889 5889 5890
5895 5894 5892 5891 5890 5888 5887 5887 5886 5885 5885 5884 5884 5884 5883 5882 5882 5882 5882 5882 5883 5883 5883 5883 5883 5883 5883 5883 5883 5883 5883 5883 5884 5884 5885 5885 5886 5886 5887 5887 5887 5888 5888
5898 5896 5895 5893 5892 5891 5889 5888 5888 5887 5886 5885 5885 5884 5883 5883 5883 5882 5883 5883 5882 5882 5882 5883 5883 5882 5882 5882 5882 5882 5882 5882 5883 5883 5883 5884 5884 5885 5885 5885 5886 5886 5886
5900 5898 5897 5896 5894 5893 5892 5890 5889 5888 5887 5886 5885 5885 5884 5883 5883 5883 5883 5882 5882 5882 5882 5882 5882 5882 5881 5881 5881 5881 5881 5881 5881 5882 5882 5883 5883 5883 5883 5884 5884 5884 5884
5902 5901 5899 5898 5896 5895 5894 5892 5891 5890 5889 5887 5886 5885 5884 5883 5883 5882 5882 5882 5882 5882 5881 5881 5881 5881 5881 5880 5881 5881 5881 5880 5880 5881 5881 5881 5881 5881 5881 5881 5882 5882 5882
5904 5903 5901 5900 5899 5897 5895 5894 5892 5891 5890 5888 5887 5885 5884 5883 5883 5882 5882 5881 5881 5881 5881 5881 5880 5880 5880 5880 5880 5880 5880 5880 5879 5879 5880 5880 5879 5880 5879 5879 5879 5880 5880
5906 5905 5903 5902 5900 5899 5897 5895 5894 5892 5890 5889 5887 5886 5885 5884 5883 5882 5882 5881 5881 5881 5880 5880 5880 5879 5879 5879 5879 5879 5879 5879 5878 5878 5878 5878 5878 5878 5877 5877 5877 5877 5877
5908 5906 5905 5903 5901 5900 5898 5896 5894 5893 5891 5890 5888 5887 5885 5884 5883 5882 5882 5881 5881 5881 5880 5880 5879 5879 5879 5879 5878 5878 5878 5877 5877 5877 5877 5876 5876 5876 5875 5875 5875 5875 5875
5909 5907 5906 5904 5902 5901 5899 5897 5896 5894 5892 5890 5889 5887 5886 5884 5883 5883 5882 5882 5881 5880 5880 5880 5879 5879 5878 5878 5877 5877 5876 5876 5875 5875 5875 5874 5874 5873 5873 5872 5872 5872 5872
5909 5908 5906 5905 5903 5901 5900 5898 5897 5895 5893 5891 5889 5888 5886 5885 5884 5883 5882 5882 5881 5880 5880 5880 5879 5878 5878 5877 5876 5875 5875 5874 5874 5873 5873 5872 5872 5871 5871 5870 5870 5869 5869